Wind_Speed
23 22 22 22 21 20 20 21 21 21 21 20 19 20 20 20 20 20 19 20 19 19 19 19 19 20 20 20 19 18 19 20 20 20 21 22 22 22 21 22 21 21 20
22 22 22 23 22 22 21 22 23 23 22 21 20 20 20 20 21 22 21 21 21 21 20 20 21 21 22 22 21 20 20 20 21 21 22 23 24 24 24 23 23 23 22
24 24 24 24 23 23 23 24 24 24 23 22 21 21 21 21 22 22 23 23 22 22 22 22 21 21 21 21 21 21 21 21 22 22 22 23 24 25 26 26 25 25 26
25 25 24 24 25 25 25 26 25 25 24 23 22 22 22 22 23 23 23 24 24 24 23 23 23 22 21 21 21 21 21 22 23 23 24 24 25 25 26 27 27 27 27
25 25 24 24 24 25 25 25 25 25 25 24 23 23 23 23 24 23 24 24 25 25 24 24 23 23 23 23 23 22 22 22 22 23 23 23 24 25 25 27 28 28 29
26 26 24 24 25 26 26 26 25 25 26 26 25 25 25 25 25 25 25 25 25 25 25 24 24 24 25 25 24 24 25 25 24 24 25 24 24 25 26 27 27 27 29
25 26 25 25 25 26 26 26 26 25 25 26 26 24 24 25 25 25 26 25 25 25 25 25 24 24 24 24 25 25 26 26 26 26 26 26 26 26 26 27 28 27 28
26 27 25 25 25 26 26 26 26 26 26 26 26 25 25 26 25 26 25 25 25 25 25 25 25 25 25 24 25 26 26 27 26 27 26 26 27 27 27 28 29 30 29
27 27 26 26 26 26 27 27 27 27 27 28 27 27 27 26 26 25 26 25 25 25 25 25 25 26 26 26 25 26 27 27 27 27 26 26 26 27 27 27 28 29 30
27 27 27 27 27 28 28 28 28 28 27 27 28 28 28 28 28 27 26 26 26 25 25 25 25 26 26 27 27 26 27 27 28 28 27 26 26 27 27 27 28 28 29
27 27 28 29 29 29 29 29 28 28 28 27 27 28 29 28 28 27 26 27 27 27 27 26 26 26 26 26 27 27 27 28 28 28 26 26 26 27 27 28 28 28 28
27 28 28 28 28 28 28 28 28 28 28 28 28 28 28 28 27 27 27 28 28 28 28 27 27 26 26 26 26 26 27 27 26 27 26 26 26 26 27 27 28 28 28
26 27 27 26 27 27 28 28 28 27 27 27 27 27 27 28 28 28 28 28 28 28 28 28 28 27 27 26 25 25 25 26 26 26 25 26 26 25 25 27 28 28 28
26 26 27 27 27 27 27 27 27 27 27 27 26 26 26 27 27 27 28 28 28 27 27 27 27 26 25 24 24 24 24 25 25 25 25 26 26 26 26 27 28 28 27
26 26 26 26 26 26 26 26 26 26 26 25 25 25 26 26 26 26 27 27 27 27 27 27 26 25 25 24 23 23 23 24 24 24 25 25 26 25 26 26 26 26 26
24 23 24 24 25 25 25 25 25 25 25 25 25 25 25 25 25 25 25 26 26 26 26 25 24 24 24 24 24 24 24 24 24 24 25 24 24 24 24 24 25 25 26
23 23 22 22 23 24 24 24 24 24 24 24 25 25 25 24 24 24 24 24 24 25 24 24 24 23 24 24 24 24 24 24 23 23 23 23 23 23 22 23 23 23 24
23 22 21 21 21 21 22 22 22 22 23 23 23 23 23 23 23 23 24 24 23 22 22 23 22 22 22 22 22 22 22 22 21 21 21 21 21 21 21 21 22 22 22
20 19 19 19 19 19 19 20 20 21 21 20 20 20 21 22 22 22 22 22 21 21 21 21 20 20 20 20 20 20 19 19 19 19 19 19 19 19 20 20 21 21 20
17 17 17 18 18 18 18 18 17 17 17 17 17 18 18 18 19 19 19 19 19 19 19 18 19 19 18 18 18 18 18 17 16 16 16 17 17 17 17 18 18 18 18
16 15 15 15 15 15 15 15 14 14 15 15 15 15 16 15 16 16 17 17 18 18 18 17 17 17 16 17 17 16 16 15 15 15 15 15 16 16 16 15 15 14 14
13 13 13 13 13 13 12 12 12 13 13 13 13 13 13 13 13 13 13 14 15 15 15 15 15 14 14 14 14 13 13 14 14 13 13 13 13 12 12 12 12 12 13
10 10 10 10 10 10 11 11 11 11 11 11 11 11 11 11 11 11 11 11 11 12 12 12 12 12 12 12 12 12 12 11 11 11 11 10 9 9 9 10 11 11 12
9 8 8 8 7 8 8 9 9 10 10 10 10 9 9 9 9 9 9 9 10 10 10 10 11 10 10 10 10 9 9 9 8 8 9 8 8 9 9 9 9 10 10
7 7 6 6 5 5 5 5 6 7 7 8 8 8 8 8 8 8 8 8 8 8 8 8 8 8 8 7 7 6 6 6 7 7 7 7 7 8 8 8 8 8 9
5 5 5 4 4 4 3 3 3 4 4 4 5 5 5 5 5 6 6 6 6 7 6 6 6 6 5 5 5 5 5 5 5 5 5 5 5 6 6 6 7 8 9
Wind_Direction
266 263 266 268 269 268 267 268 266 266 267 268 269 270 271 273 277 275 278 277 276 278 280 278 276 272 271 269 267 267 260 256 256 256 254 250 249 248 247 246 246 248 249
265 264 265 269 270 271 269 268 270 268 267 267 269 270 271 274 277 277 276 277 277 277 277 278 277 275 271 267 266 268 266 261 259 257 258 253 249 248 248 248 248 248 249
265 264 266 269 272 273 271 270 271 271 272 272 271 271 274 276 278 278 278 277 275 275 277 276 276 277 272 268 266 267 268 264 261 261 262 257 252 250 250 250 250 250 250
270 267 266 268 271 273 273 272 272 273 276 275 273 272 273 276 277 278 279 279 277 276 276 275 276 277 272 269 270 269 269 268 263 261 261 259 255 253 252 251 251 252 253
270 267 266 269 271 273 273 272 272 272 273 274 274 274 274 275 277 278 280 281 279 277 276 275 275 276 274 272 271 270 269 268 266 262 262 260 258 257 256 253 253 254 255
272 268 268 269 270 273 273 273 274 274 273 273 275 275 274 274 275 277 279 279 278 276 277 276 273 273 272 271 271 270 269 270 268 266 264 264 263 262 260 259 258 259 259
274 273 270 269 270 273 273 275 275 274 273 274 275 275 275 275 275 277 278 278 276 276 276 276 275 275 274 271 270 270 271 270 270 269 268 266 265 263 263 263 262 263 261
274 274 273 272 272 274 275 275 273 271 272 272 273 275 275 275 275 276 277 277 276 275 274 275 275 275 275 272 271 269 269 270 271 272 271 267 267 264 263 265 264 264 263
274 274 272 271 273 274 274 273 272 271 271 272 271 273 274 274 274 274 275 275 275 275 274 274 274 274 274 272 270 270 270 270 273 275 272 268 266 266 264 266 265 264 264
275 273 271 271 272 272 272 272 271 272 272 272 272 273 273 273 274 273 273 274 274 273 274 274 272 272 274 274 274 276 275 273 274 275 274 271 270 269 269 269 267 267 266
276 274 272 271 272 271 271 271 271 271 272 273 273 272 272 273 273 272 272 272 273 273 273 274 273 273 274 274 274 275 277 275 275 273 273 272 273 273 272 272 270 270 268
278 276 275 274 272 272 271 272 271 272 272 273 273 273 272 272 271 271 271 270 271 272 272 273 273 273 273 274 275 275 275 276 276 276 274 276 276 274 274 275 274 271 271
280 278 277 276 275 274 273 272 272 272 272 272 273 272 271 271 269 269 269 269 269 270 271 273 272 273 273 274 274 274 275 276 275 275 276 277 277 276 276 276 276 276 275
282 280 278 276 275 274 274 272 272 272 271 270 271 270 270 271 270 268 268 269 269 269 270 271 272 272 272 273 273 274 275 276 275 276 277 278 278 277 277 279 277 277 276
283 281 279 277 275 274 274 273 272 271 270 271 272 272 271 271 270 269 268 269 270 270 270 270 272 272 271 271 272 273 274 276 277 277 277 279 279 278 278 279 278 278 278
284 283 281 279 277 275 274 273 273 273 273 272 272 272 272 271 268 268 268 268 268 269 269 269 269 270 269 270 272 273 274 275 276 278 278 278 278 278 279 281 281 281 283
284 284 284 281 278 275 274 274 274 274 275 274 274 272 272 271 270 269 268 268 269 268 267 267 267 268 270 271 273 274 274 275 276 277 277 279 279 278 278 279 282 283 284
285 286 285 282 279 277 275 273 272 274 275 274 273 272 272 270 270 269 267 266 267 268 266 266 267 267 269 271 273 274 273 274 275 276 277 278 279 279 279 279 281 283 284
287 286 286 283 280 278 276 274 274 274 276 274 273 272 271 268 267 265 265 265 265 266 265 265 266 269 270 272 273 274 274 275 275 277 277 278 279 280 282 282 281 282 281
288 289 289 286 282 279 278 277 276 275 272 271 272 273 272 270 269 267 264 264 264 264 264 265 266 269 269 271 272 273 273 274 275 276 277 278 280 280 283 283 282 282 285
288 288 287 285 282 279 277 275 274 273 271 272 273 273 272 272 270 268 265 263 263 263 264 266 266 268 268 268 269 269 268 271 275 275 278 278 279 280 282 284 286 287 289
292 288 289 288 284 280 277 273 271 271 273 274 274 271 270 270 267 265 262 260 259 261 262 262 262 263 265 264 263 264 269 271 273 274 279 282 283 283 286 287 288 291 293
299 297 295 293 290 284 277 274 272 271 271 272 272 270 268 267 264 261 259 256 257 258 259 256 256 260 257 257 260 265 269 272 276 276 279 282 284 290 290 292 293 294 297
306 303 302 298 294 290 283 275 270 269 272 271 269 267 267 264 259 255 252 253 251 256 257 253 253 256 254 251 256 262 268 275 279 280 284 285 283 290 294 299 301 304 306
317 317 316 315 312 306 295 284 278 273 273 271 267 262 261 255 249 247 247 249 250 252 250 247 248 245 242 242 246 253 262 273 282 287 289 290 290 292 295 302 309 312 312
334 332 333 332 332 328 315 302 290 282 279 278 269 257 250 241 237 237 238 244 244 243 242 236 229 225 227 234 242 253 265 271 276 285 291 295 302 305 308 311 313 317 320
Height
5869 5870 5871 5871 5871 5871 5872 5873 5873 5873 5873 5874 5874 5874 5874 5874 5874 5874 5874 5874 5874 5874 5874 5875 5875 5875 5875 5876 5876 5877 5877 5877 5878 5879 5879 5880 5881 5882 5883 5884 5885 5886 5887
5865 5866 5866 5867 5867 5868 5868 5868 5868 5868 5869 5869 5870 5870 5870 5870 5870 5870 5870 5870 5870 5870 5870 5870 5870 5870 5871 5871 5871 5872 5873 5873 5873 5874 5875 5875 5876 5877 5878 5880 5881 5882 5883
5861 5861 5862 5862 5862 5863 5863 5863 5863 5863 5864 5864 5865 5865 5865 5865 5866 5865 5865 5866 5866 5865 5865 5865 5866 5866 5866 5866 5866 5867 5867 5868 5868 5869 5869 5870 5871 5872 5873 5875 5876 5877 5878
5856 5856 5856 5857 5857 5857 5858 5858 5858 5858 5859 5859 5860 5860 5860 5861 5860 5861 5860 5860 5861 5861 5861 5860 5861 5861 5861 5861 5861 5862 5862 5862 5863 5864 5864 5865 5866 5867 5868 5869 5870 5871 5872
5850 5850 5850 5851 5852 5852 5852 5852 5853 5853 5853 5854 5854 5854 5855 5855 5855 5855 5855 5855 5855 5855 5855 5855 5855 5856 5856 5856 5857 5857 5857 5857 5858 5859 5859 5860 5860 5861 5862 5863 5864 5865 5866
5845 5845 5845 5846 5846 5847 5847 5847 5847 5847 5848 5848 5848 5849 5849 5849 5849 5849 5849 5849 5849 5849 5849 5849 5850 5850 5850 5851 5851 5852 5852 5853 5853 5853 5854 5854 5855 5856 5857 5857 5858 5859 5860
5839 5839 5839 5840 5840 5841 5841 5841 5841 5842 5842 5842 5843 5843 5843 5843 5843 5843 5843 5843 5843 5843 5843 5843 5844 5844 5844 5845 5846 5846 5846 5847 5847 5847 5848 5849 5849 5850 5850 5851 5852 5853 5853
5833 5833 5833 5834 5834 5834 5835 5835 5835 5836 5836 5836 5836 5836 5837 5837 5837 5837 5837 5837 5837 5837 5837 5838 5838 5838 5838 5839 5840 5840 5840 5841 5841 5841 5842 5842 5843 5844 5844 5845 5845 5846 5847
5827 5827 5827 5827 5828 5828 5828 5829 5829 5829 5829 5830 5830 5830 5830 5830 5831 5831 5831 5831 5831 5831 5832 5832 5832 5832 5833 5833 5833 5834 5834 5835 5835 5836 5836 5836 5837 5837 5838 5838 5839 5839 5840
5820 5820 5820 5821 5821 5821 5822 5822 5822 5822 5823 5823 5823 5823 5823 5823 5824 5824 5824 5824 5824 5825 5825 5825 5826 5826 5826 5827 5827 5828 5828 5828 5829 5829 5829 5830 5830 5831 5831 5831 5832 5832 5833
5813 5813 5813 5813 5814 5814 5814 5814 5814 5815 5815 5815 5815 5815 5816 5816 5816 5817 5818 5818 5818 5818 5819 5819 5819 5820 5820 5821 5821 5822 5822 5822 5823 5823 5823 5823 5823 5824 5825 5825 5825 5825 5826
5806 5806 5806 5806 5806 5806 5806 5807 5807 5807 5807 5808 5808 5808 5809 5809 5809 5809 5810 5810 5811 5811 5812 5812 5813 5813 5813 5814 5815 5815 5816 5816 5816 5816 5817 5817 5817 5818 5818 5818 5819 5819 5819
5799 5799 5799 5799 5799 5799 5799 5799 5799 5800 5800 5800 5800 5801 5801 5801 5802 5802 5803 5803 5804 5804 5805 5806 5806 5807 5807 5807 5808 5809 5809 5810 5810 5810 5811 5811 5811 5811 5811 5812 5812 5812 5812
5792 5791 5791 5791 5791 5791 5791 5791 5792 5792 5792 5793 5793 5793 5794 5794 5794 5795 5796 5796 5796 5797 5798 5799 5799 5800 5800 5801 5802 5802 5803 5803 5804 5804 5804 5804 5804 5805 5805 5805 5805 5805 5805
5785 5784 5784 5784 5784 5784 5784 5784 5784 5784 5785 5785 5786 5786 5786 5787 5787 5787 5788 5789 5790 5790 5791 5792 5793 5793 5794 5795 5796 5796 5797 5797 5797 5798 5798 5798 5798 5798 5798 5798 5798 5798 5798
5777 5777 5776 5776 5776 5776 5776 5777 5777 5777 5777 5778 5778 5779 5779 5779 5780 5780 5781 5781 5782 5783 5784 5785 5786 5787 5788 5789 5789 5790 5790 5791 5791 5791 5791 5791 5792 5792 5792 5792 5792 5791 5791
5771 5770 5769 5769 5769 5769 5769 5770 5770 5770 5770 5771 5771 5771 5772 5772 5773 5773 5774 5774 5775 5776 5778 5779 5780 5781 5782 5783 5783 5783 5784 5785 5785 5785 5785 5785 5785 5785 5785 5785 5785 5785 5785
5765 5764 5763 5762 5762 5762 5763 5763 5763 5764 5764 5764 5764 5765 5765 5765 5766 5766 5767 5768 5769 5770 5772 5773 5774 5775 5776 5777 5777 5778 5778 5779 5779 5779 5779 5779 5779 5779 5779 5779 5779 5779 5778
5759 5758 5757 5756 5756 5756 5757 5757 5757 5758 5758 5758 5758 5758 5759 5759 5759 5760 5761 5762 5763 5765 5766 5767 5768 5769 5770 5771 5772 5772 5772 5773 5773 5773 5773 5773 5773 5773 5773 5773 5773 5773 5773
5753 5752 5752 5751 5751 5751 5751 5751 5751 5752 5752 5752 5752 5753 5753 5753 5753 5754 5755 5757 5758 5759 5761 5762 5763 5764 5765 5766 5766 5767 5768 5768 5768 5768 5768 5768 5768 5768 5768 5768 5768 5768 5767
5748 5747 5747 5746 5746 5746 5746 5746 5746 5747 5747 5747 5747 5748 5748 5748 5749 5750 5751 5752 5753 5755 5756 5757 5758 5759 5760 5761 5762 5762 5763 5763 5763 5764 5764 5764 5764 5764 5763 5763 5763 5763 5762
5744 5743 5743 5742 5742 5741 5741 5742 5742 5743 5743 5743 5743 5744 5744 5744 5745 5746 5747 5748 5749 5750 5751 5752 5754 5755 5756 5756 5757 5758 5759 5759 5759 5760 5760 5760 5760 5760 5759 5759 5759 5759 5758
5741 5740 5740 5739 5738 5738 5738 5738 5738 5739 5739 5740 5740 5740 5741 5741 5742 5743 5743 5744 5745 5746 5748 5749 5750 5751 5752 5753 5754 5754 5755 5755 5756 5756 5756 5756 5756 5756 5756 5755 5755 5755 5754
5739 5738 5737 5736 5736 5735 5735 5735 5735 5735 5736 5736 5736 5737 5738 5738 5739 5740 5740 5742 5743 5743 5744 5745 5747 5748 5749 5750 5751 5751 5752 5752 5752 5753 5753 5753 5753 5753 5753 5753 5752 5751 5751
5737 5736 5735 5734 5734 5733 5733 5732 5733 5733 5733 5733 5734 5734 5735 5735 5736 5737 5738 5739 5740 5741 5742 5743 5744 5745 5746 5747 5748 5749 5750 5750 5750 5751 5751 5751 5751 5751 5750 5750 5749 5748 5747
5736 5735 5734 5733 5733 5732 5732 5731 5731 5731 5731 5731 5732 5732 5732 5733 5734 5735 5736 5737 5738 5739 5740 5741 5742 5744 5745 5746 5747 5747 5748 5748 5749 5749 5749 5749 5749 5748 5748 5748 5747 5746 5745